Location: Unspecified
(29.8555°N, 0.0000°E)
Time: 04:14:07
(UTC+00:00)

CSL-04 DEB - Visible Passes

Search period start: 04 April 2026 00:00
Search period end: 14 April 2026 00:00
Orbit: 662 x 1028 km, 99.1° (Epoch: 29 March)

Date Brightness Start Highest point End Pass type
(mag) Time Alt. Az. Time Alt. Az. Time Alt. Az.
4 Apr ? 20:13:13 25° NE 20:13:13 25° NE 20:16:58 10° NNE visible
4 Apr ? 21:55:06 26° NW 21:55:06 26° NW 21:58:00 10° NNW visible
5 Apr ? 19:59:28 19° ENE 19:59:28 19° ENE 20:02:53 10° NNE visible
5 Apr ? 21:41:21 33° NW 21:41:21 33° NW 21:44:41 10° NNW visible
6 Apr ? 19:45:42 15° ENE 19:45:42 15° ENE 19:48:28 10° NNE visible
6 Apr ? 21:27:34 39° NNW 21:27:34 39° NNW 21:31:15 10° NNW visible
7 Apr ? 19:31:56 11° ENE 19:31:56 11° ENE 19:33:03 10° NE visible
7 Apr ? 21:13:48 44° N 21:13:48 44° N 21:17:44 10° NNW visible
8 Apr ? 21:00:01 45° NNE 21:00:01 45° NNE 21:04:06 10° N visible
8 Apr ? 22:41:54 11° WNW 22:41:54 11° WNW 22:42:10 10° WNW visible
9 Apr ? 20:46:15 40° NNE 20:46:15 40° NNE 20:50:23 10° N visible
9 Apr ? 22:28:07 15° WNW 22:28:07 15° WNW 22:29:34 10° NW visible
10 Apr ? 20:32:27 34° NE 20:32:27 34° NE 20:36:34 10° N visible
10 Apr ? 22:14:20 20° WNW 22:14:20 20° WNW 22:16:35 10° NW visible
11 Apr ? 20:18:40 27° NE 20:18:40 27° NE 20:22:37 10° NNE visible
11 Apr ? 22:00:32 26° NW 22:00:32 26° NW 22:03:25 10° NW visible
12 Apr ? 20:04:52 21° ENE 20:04:52 21° ENE 20:08:29 10° NNE visible
12 Apr ? 21:46:44 33° NW 21:46:44 33° NW 21:50:05 10° NNW visible
13 Apr ? 19:51:04 15° ENE 19:51:04 15° ENE 19:54:04 10° NNE visible
13 Apr ? 21:32:56 40° NW 21:32:56 40° NW 21:36:38 10° NNW visible
